Regional Weather Roundup
Issued by NWS

Home | Current Version | Previous Version | Text Only | Print | Product List | Glossary Off
Versions: 1 2 3 4 5 6 7 8 9 10 11 12 13 14 15 16 17 18 19 20 21 22 23 24 25 26 27

000
ASUS45 KSLC 230010
RWRUT

UTAH REGIONAL WEATHER ROUNDUP
NATIONAL WEATHER SERVICE SALT LAKE CITY UT
600 PM MDT MON MAY 22 2017

UTZ001>011-023>025-230100-

NORTHERN UTAH

CITY           SKY/WX    TMP DP  RH WIND       PRES   REMARKS
BRIGHAM CITY   PTSUNNY   72  36  26 S7        30.16F
HILL AFB       SUNNY     68  36  30 CALM      30.19F
LOGAN          PTSUNNY   74  46  36 W12       30.14F
OGDEN          SUNNY     68  34  28 CALM      30.17F
SALT LAKE CITY PTSUNNY   74  34  23 VRB7      30.16F
TOOELE VALLEY  SUNNY     73  37  27 E3        30.18F
WENDOVER       SUNNY     77  31  18 SE7       30.16F
HEBER CITY     MOSUNNY   72  36  26 W12       30.18S
WEST JORDAN    SUNNY     74  47  39 NW6       30.19F

$$

UTZ011>015-024>027-230100-

CENTRAL/NORTHEAST UTAH

CITY           SKY/WX    TMP DP  RH WIND       PRES   REMARKS
PROVO AIRPORT  MOSUNNY   72  43  35 NW12      30.17F
MOAB/CANYONLAN MOSUNNY   78  28  16 SW5       30.05F
DELTA          SUNNY     75  27  16 NW6G16    30.16F
PRICE          SUNNY     72  31  22 NW18G25   30.15F
RICHFIELD      SUNNY     73  34  23 N7        30.19F
ROOSEVELT      PTSUNNY   73  27  17 NW13      30.11S
VERNAL         MOSUNNY   70  33  25 NE3       30.10F

$$

UTZ013>016-019>022-027-230100-

SOUTHERN UTAH

CITY           SKY/WX    TMP DP  RH WIND       PRES   REMARKS
BRYCE CANYON   SUNNY     68  22  17 NW17G28   30.26F
CEDAR CITY     SUNNY     75  23  14 N12G20    30.18F
MILFORD        SUNNY     76  26  15 NE6       30.17F
ST GEORGE      CLEAR     89  30  12 VRB5      29.99F
HANKSVILLE     SUNNY     81  27  13 N6G17     30.07F
KANAB          SUNNY     82  25  12 W9        30.13F
BLANDING       SUNNY     71  21  15 N22       30.21S

$$

REGIONAL REPORTS     COLORADO/ARIZONA

CITY           SKY/WX    TMP DP  RH WIND       PRES   REMARKS
CRAIG, CO      CLOUDY    50  36  58 N25G37    30.20R
GRAND JUNCTION CLOUDY    74  25  16 NW14G35   30.07F
RIFLE, CO      CLOUDY    66  31  27 NW9       30.11F
MONTROSE, CO   PTSUNNY   67  26  21 NW17      30.14F
CORTEZ, CO     SUNNY     71  21  15 NW18G26   30.11F
COLORADO CITY    N/A     82  28  14 NW13G18   30.14F
PAGE, AZ       SUNNY     81  29  15 E5        30.04F
GRAND CANYON   PTSUNNY   70  24  17 VRB7      30.22F
KINGMAN, AZ    MOSUNNY   91  29  11 N16G23    30.02S
FLAGSTAFF, AZ  MOSUNNY   70  18  13 N9        30.23S

$$

REGIONAL REPORTS    NEVADA/IDAHO/WYOMING

CITY           SKY/WX    TMP DP  RH WIND       PRES   REMARKS
LAS VEGAS, NV  MOSUNNY   94  27   9 VRB3      29.92F
ELY, NY        SUNNY     74  25  16 NE9       30.23F
ELKO, NV       SUNNY     76  34  21 S5        30.19F
POCATELLO, ID  MOSUNNY   72  43  35 VRB7      30.15F
BURLEY, ID     SUNNY     75  35  23 W12G20    30.13F
FORT BRIDGER,  MOCLDY    65  32  28 NW22G30   30.26F
EVANSTON, WY   CLOUDY    63  36  36 NW20G29   30.25F
ROCK SPRINGS,  CLOUDY    47  33  58 NE28G36   30.26R
KEMMERER, WY     N/A     59  30  33 W21G29    30.26R

$$




USA.gov is the U.S. government's official web portal to all federal, state and local government web resources and services.